| time (UTC) | temp F | wind direction | speed MPH | gust MPH | rain 1hr in | rain 24hr in | rain mn in | humidity % | barometer mb |
| 20260906081946 | 65 | 164 | 4.0 | 5.0 | 0.00 | 0.00 | 0.00 | 75 | 1026.1 |
| 20260906081447 | 64 | 176 | 4.0 | 7.0 | 0.00 | 0.00 | 0.00 | 75 | 1026.2 |
| 20260906080945 | 64 | 233 | 4.0 | 9.0 | 0.00 | 0.00 | 0.00 | 78 | 1026.2 |
| 20260906080443 | 63 | 168 | 4.0 | 9.0 | 0.00 | 0.00 | 0.00 | 78 | 1026.1 |
| 20260906075941 | 63 | 203 | 2.0 | 5.0 | 0.00 | 0.00 | 0.00 | 79 | 1026.1 |
| 20260906075440 | 63 | 174 | 2.0 | 5.0 | 0.00 | 0.00 | 0.00 | 81 | 1026.0 |
| 20260906074942 | 62 | 172 | 2.0 | 5.0 | 0.00 | 0.00 | 0.00 | 82 | 1026.0 |
| 20260906074432 | 61 | 157 | 2.0 | 7.0 | 0.00 | 0.00 | 0.00 | 84 | 1026.1 |
| 20260906073933 | 60 | 147 | 2.0 | 7.0 | 0.00 | 0.00 | 0.00 | 84 | 1026.0 |
| 20260906073432 | 60 | 197 | 2.0 | 7.0 | 0.00 | 0.00 | 0.00 | 85 | 1026.0 |
| 20260906072932 | 60 | 205 | 2.0 | 7.0 | 0.00 | 0.00 | 0.00 | 86 | 1026.0 |
| 20260906072432 | 59 | 167 | 2.0 | 5.0 | 0.00 | 0.00 | 0.00 | 87 | 1026.0 |
| 20260906071931 | 58 | 158 | 2.0 | 5.0 | 0.00 | 0.00 | 0.00 | 89 | 1026.0 |
| 20260906071432 | 58 | 134 | 2.0 | 7.0 | 0.00 | 0.00 | 0.00 | 90 | 1026.1 |
| 20260906070934 | 57 | 132 | 2.0 | 7.0 | 0.00 | 0.00 | 0.00 | 91 | 1026.1 |
| 20260906070435 | 57 | 166 | 2.0 | 7.0 | 0.00 | 0.00 | 0.00 | 92 | 1026.2 |
| 20260906065933 | 56 | 183 | 2.0 | 7.0 | 0.00 | 0.00 | 0.00 | 93 | 1026.2 |
| 20260906065433 | 55 | 106 | 2.0 | 5.0 | 0.00 | 0.00 | 0.00 | 95 | 1026.2 |
| 20260906064435 | 54 | 3 | 0.0 | 5.0 | 0.00 | 0.00 | 0.00 | 96 | 1026.3 |
| 20260906063932 | 53 | 3 | 0.0 | 5.0 | 0.00 | 0.00 | 0.00 | 96 | 1026.3 |
| 20260906063434 | 53 | 350 | 0.0 | 0.0 | 0.00 | 0.00 | 0.00 | 97 | 1026.3 |
| 20260906062932 | 52 | 347 | 0.0 | 0.0 | 0.00 | 0.00 | 0.00 | 97 | 1026.2 |
| 20260906062430 | 51 | 347 | 0.0 | 0.0 | 0.00 | 0.00 | 0.00 | 96 | 1026.3 |
| 20260906061429 | 50 | 340 | 0.0 | 0.0 | 0.00 | 0.00 | 0.00 | 96 | 1026.3 |
| 20260906060920 | 50 | 340 | 0.0 | 0.0 | 0.00 | 0.00 | 0.00 | 96 | 1026.3 |
| 20260906060417 | 49 | 340 | 0.0 | 0.0 | 0.00 | 0.00 | 0.00 | 96 | 1026.4 |
| 20260906055910 | 49 | 340 | 0.0 | 0.0 | 0.00 | 0.00 | 0.00 | 96 | 1026.3 |
| 20260906055405 | 49 | 339 | 0.0 | 0.0 | 0.00 | 0.00 | 0.00 | 96 | 1026.4 |
| 20260906054907 | 49 | 331 | 0.0 | 0.0 | 0.00 | 0.00 | 0.00 | 95 | 1026.5 |
| 20260906054405 | 49 | 331 | 0.0 | 0.0 | 0.00 | 0.00 | 0.00 | 95 | 1026.3 |
| 20260906053900 | 49 | 331 | 0.0 | 0.0 | 0.00 | 0.00 | 0.00 | 95 | 1026.4 |
| 20260906053350 | 49 | 331 | 0.0 | 0.0 | 0.00 | 0.00 | 0.00 | 95 | 1026.4 |
| 20260906052851 | 49 | 331 | 0.0 | 0.0 | 0.00 | 0.00 | 0.00 | 95 | 1026.4 |
| 20260906052344 | 49 | 331 | 0.0 | 0.0 | 0.00 | 0.00 | 0.00 | 95 | 1026.5 |
| 20260906051840 | 49 | 331 | 0.0 | 0.0 | 0.00 | 0.00 | 0.00 | 95 | 1026.6 |
| 20260906051337 | 49 | 331 | 0.0 | 0.0 | 0.00 | 0.00 | 0.00 | 95 | 1026.5 |
| 20260906050832 | 49 | 331 | 0.0 | 0.0 | 0.00 | 0.00 | 0.00 | 95 | 1026.4 |
| 20260906050332 | 49 | 331 | 0.0 | 0.0 | 0.00 | 0.00 | 0.00 | 95 | 1026.5 |
| 20260906045832 | 49 | 331 | 0.0 | 0.0 | 0.00 | 0.00 | 0.00 | 95 | 1026.4 |
| 20260906045326 | 49 | 331 | 0.0 | 0.0 | 0.00 | 0.00 | 0.00 | 95 | 1026.3 |
| 20260906044828 | 49 | 331 | 0.0 | 0.0 | 0.00 | 0.00 | 0.00 | 95 | 1026.4 |
| 20260906044326 | 49 | 331 | 0.0 | 0.0 | 0.00 | 0.00 | 0.00 | 95 | 1026.4 |
| 20260906043820 | 49 | 331 | 0.0 | 0.0 | 0.00 | 0.00 | 0.00 | 95 | 1026.2 |
| 20260906043319 | 49 | 331 | 0.0 | 0.0 | 0.00 | 0.00 | 0.00 | 95 | 1026.2 |
| 20260906042815 | 49 | 331 | 0.0 | 0.0 | 0.00 | 0.00 | 0.00 | 94 | 1026.2 |
| 20260906042308 | 49 | 331 | 0.0 | 0.0 | 0.00 | 0.00 | 0.00 | 95 | 1026.2 |
| 20260906041805 | 49 | 331 | 0.0 | 0.0 | 0.00 | 0.00 | 0.00 | 95 | 1026.3 |
| 20260906041304 | 49 | 331 | 0.0 | 0.0 | 0.00 | 0.00 | 0.00 | 95 | 1026.2 |
| 20260906040807 | 49 | 331 | 0.0 | 0.0 | 0.00 | 0.00 | 0.00 | 95 | 1026.3 |
| 20260906040306 | 49 | 331 | 0.0 | 0.0 | 0.00 | 0.00 | 0.00 | 95 | 1026.5 |
| 20260906035250 | 49 | 331 | 0.0 | 0.0 | 0.00 | 0.00 | 0.00 | 95 | 1026.6 |
| 20260906034738 | 49 | 331 | 0.0 | 0.0 | 0.00 | 0.00 | 0.00 | 94 | 1026.6 |
| 20260906034232 | 49 | 331 | 0.0 | 0.0 | 0.00 | 0.00 | 0.00 | 94 | 1026.8 |
| 20260906033733 | 50 | 331 | 0.0 | 0.0 | 0.00 | 0.00 | 0.00 | 94 | 1026.8 |
| 20260906033230 | 50 | 331 | 0.0 | 0.0 | 0.00 | 0.00 | 0.00 | 94 | 1026.8 |
| 20260906032731 | 50 | 331 | 0.0 | 0.0 | 0.00 | 0.00 | 0.00 | 94 | 1026.9 |
| 20260906032232 | 50 | 331 | 0.0 | 0.0 | 0.00 | 0.00 | 0.00 | 94 | 1026.8 |
| 20260906031732 | 50 | 331 | 0.0 | 0.0 | 0.00 | 0.00 | 0.00 | 94 | 1027.0 |
| 20260906031226 | 50 | 331 | 0.0 | 0.0 | 0.00 | 0.00 | 0.00 | 94 | 1026.9 |
| 20260906030727 | 50 | 331 | 0.0 | 0.0 | 0.00 | 0.00 | 0.00 | 94 | 1026.9 |
| 20260906030219 | 50 | 331 | 0.0 | 0.0 | 0.00 | 0.00 | 0.00 | 94 | 1027.1 |
| 20260906025718 | 50 | 331 | 0.0 | 0.0 | 0.00 | 0.00 | 0.00 | 94 | 1027.1 |
| 20260906025210 | 50 | 331 | 0.0 | 0.0 | 0.00 | 0.00 | 0.00 | 94 | 1027.0 |
| 20260906024709 | 50 | 331 | 0.0 | 0.0 | 0.00 | 0.00 | 0.00 | 94 | 1027.1 |
| 20260906024208 | 50 | 331 | 0.0 | 0.0 | 0.00 | 0.00 | 0.00 | 94 | 1027.2 |
| 20260906023706 | 50 | 331 | 0.0 | 0.0 | 0.00 | 0.00 | 0.00 | 94 | 1027.2 |
| 20260906023204 | 51 | 331 | 0.0 | 0.0 | 0.00 | 0.00 | 0.00 | 94 | 1027.1 |
| 20260906022703 | 51 | 331 | 0.0 | 0.0 | 0.00 | 0.00 | 0.00 | 94 | 1027.1 |
| 20260906022205 | 51 | 331 | 0.0 | 0.0 | 0.00 | 0.00 | 0.00 | 94 | 1027.1 |
| 20260906021702 | 51 | 331 | 0.0 | 0.0 | 0.00 | 0.00 | 0.00 | 94 | 1027.0 |
| 20260906021204 | 51 | 331 | 0.0 | 0.0 | 0.00 | 0.00 | 0.00 | 94 | 1026.9 |
| 20260906020703 | 51 | 331 | 0.0 | 0.0 | 0.00 | 0.00 | 0.00 | 94 | 1027.2 |
| 20260906020205 | 51 | 331 | 0.0 | 0.0 | 0.00 | 0.00 | 0.00 | 94 | 1027.3 |
| 20260906015703 | 51 | 331 | 0.0 | 0.0 | 0.00 | 0.00 | 0.00 | 93 | 1027.2 |
| 20260906014704 | 51 | 324 | 0.0 | 0.0 | 0.00 | 0.00 | 0.00 | 93 | 1027.2 |
| 20260906014205 | 51 | 324 | 0.0 | 0.0 | 0.00 | 0.00 | 0.00 | 93 | 1027.4 |
| 20260906013702 | 51 | 324 | 0.0 | 0.0 | 0.00 | 0.00 | 0.00 | 93 | 1027.4 |
| 20260906013204 | 51 | 324 | 0.0 | 0.0 | 0.00 | 0.00 | 0.00 | 93 | 1027.5 |
| 20260906012202 | 51 | 324 | 0.0 | 0.0 | 0.00 | 0.00 | 0.00 | 93 | 1027.3 |
| 20260906011704 | 51 | 324 | 0.0 | 0.0 | 0.00 | 0.00 | 0.00 | 93 | 1027.3 |
| 20260906011203 | 51 | 324 | 0.0 | 0.0 | 0.00 | 0.00 | 0.00 | 93 | 1027.3 |
| 20260906010204 | 52 | 324 | 0.0 | 0.0 | 0.00 | 0.00 | 0.00 | 93 | 1027.2 |
| 20260906005703 | 52 | 324 | 0.0 | 0.0 | 0.00 | 0.00 | 0.00 | 92 | 1027.2 |
| 20260906005204 | 52 | 324 | 0.0 | 0.0 | 0.00 | 0.00 | 0.00 | 92 | 1027.3 |
| 20260906004641 | 52 | 324 | 0.0 | 0.0 | 0.00 | 0.00 | 0.00 | 93 | 1027.3 |
| 20260906003635 | 52 | 324 | 0.0 | 0.0 | 0.00 | 0.00 | 0.00 | 92 | 1027.0 |
| 20260906003135 | 52 | 324 | 0.0 | 0.0 | 0.00 | 0.00 | 0.00 | 92 | 1026.9 |
| 20260906002132 | 52 | 324 | 0.0 | 0.0 | 0.00 | 0.00 | 0.00 | 92 | 1027.0 |
| 20260906001132 | 53 | 324 | 0.0 | 0.0 | 0.00 | 0.00 | 0.00 | 92 | 1027.1 |
| 20260906000134 | 53 | 324 | 0.0 | 0.0 | 0.00 | 0.00 | 0.00 | 92 | 1027.2 |
| 20260905235132 | 53 | 324 | 0.0 | 0.0 | 0.00 | 0.00 | 0.00 | 92 | 1027.0 |
| 20260905234631 | 53 | 324 | 0.0 | 0.0 | 0.00 | 0.00 | 0.00 | 91 | 1027.1 |
| 20260905234120 | 53 | 324 | 0.0 | 0.0 | 0.00 | 0.00 | 0.00 | 91 | 1027.0 |
| 20260905233624 | 53 | 324 | 0.0 | 0.0 | 0.00 | 0.00 | 0.00 | 91 | 1027.0 |
| 20260905233119 | 53 | 324 | 0.0 | 0.0 | 0.00 | 0.00 | 0.00 | 91 | 1027.0 |
| 20260905231604 | 53 | 324 | 0.0 | 0.0 | 0.00 | 0.00 | 0.00 | 91 | 1026.9 |
| 20260905230604 | 54 | 324 | 0.0 | 2.0 | 0.00 | 0.00 | 0.00 | 90 | 1026.9 |
| 20260905230105 | 54 | 324 | 0.0 | 2.0 | 0.00 | 0.00 | 0.00 | 90 | 1027.0 |
| 20260905225602 | 54 | 324 | 0.0 | 2.0 | 0.00 | 0.00 | 0.00 | 90 | 1027.0 |
| 20260905225104 | 54 | 324 | 0.0 | 2.0 | 0.00 | 0.00 | 0.00 | 90 | 1026.9 |
| 20260905223604 | 55 | 324 | 0.0 | 2.0 | 0.00 | 0.00 | 0.00 | 89 | 1026.8 |
| 20260905223104 | 55 | 324 | 0.0 | 2.0 | 0.00 | 0.00 | 0.00 | 89 | 1026.8 |
| 20260905222603 | 55 | 324 | 0.0 | 2.0 | 0.00 | 0.00 | 0.00 | 89 | 1026.8 |
| 20260905222104 | 55 | 324 | 0.0 | 0.0 | 0.00 | 0.00 | 0.00 | 89 | 1026.8 |
| 20260905221603 | 55 | 324 | 0.0 | 0.0 | 0.00 | 0.00 | 0.00 | 89 | 1026.8 |
| 20260905221106 | 55 | 324 | 0.0 | 0.0 | 0.00 | 0.00 | 0.00 | 88 | 1026.8 |
| 20260905220604 | 55 | 324 | 0.0 | 0.0 | 0.00 | 0.00 | 0.00 | 88 | 1026.8 |
| 20260905220059 | 56 | 324 | 0.0 | 0.0 | 0.00 | 0.00 | 0.00 | 88 | 1026.7 |
| 20260905215543 | 56 | 324 | 0.0 | 0.0 | 0.00 | 0.00 | 0.00 | 88 | 1026.6 |
| 20260905215040 | 56 | 324 | 0.0 | 0.0 | 0.00 | 0.00 | 0.00 | 88 | 1026.6 |
| 20260905214536 | 56 | 324 | 0.0 | 0.0 | 0.00 | 0.00 | 0.00 | 88 | 1026.6 |
| 20260905214038 | 56 | 324 | 0.0 | 0.0 | 0.00 | 0.00 | 0.00 | 87 | 1026.6 |
| 20260905213533 | 56 | 324 | 0.0 | 0.0 | 0.00 | 0.00 | 0.00 | 87 | 1026.5 |
| 20260905212035 | 57 | 324 | 0.0 | 0.0 | 0.00 | 0.00 | 0.00 | 86 | 1026.5 |
| 20260905211534 | 57 | 324 | 0.0 | 0.0 | 0.00 | 0.00 | 0.00 | 86 | 1026.6 |
| 20260905210535 | 58 | 324 | 0.0 | 0.0 | 0.00 | 0.00 | 0.00 | 85 | 1026.6 |
| 20260905210031 | 58 | 324 | 0.0 | 0.0 | 0.00 | 0.00 | 0.00 | 84 | 1026.6 |
| 20260905205531 | 58 | 324 | 0.0 | 0.0 | 0.00 | 0.00 | 0.00 | 84 | 1026.6 |
| 20260905204532 | 58 | 324 | 0.0 | 0.0 | 0.00 | 0.00 | 0.00 | 83 | 1026.5 |
| 20260905204027 | 59 | 324 | 0.0 | 0.0 | 0.00 | 0.00 | 0.00 | 83 | 1026.6 |
| 20260905203026 | 59 | 324 | 0.0 | 2.0 | 0.00 | 0.00 | 0.00 | 83 | 1026.6 |
| 20260905202519 | 59 | 324 | 0.0 | 2.0 | 0.00 | 0.00 | 0.00 | 82 | 1026.4 |
| 20260905201515 | 60 | 324 | 0.0 | 2.0 | 0.00 | 0.00 | 0.00 | 81 | 1026.4 |
| 20260905201008 | 60 | 324 | 0.0 | 2.0 | 0.00 | 0.00 | 0.00 | 80 | 1026.3 |
| 20260905200506 | 60 | 324 | 0.0 | 2.0 | 0.00 | 0.00 | 0.00 | 80 | 1026.3 |
| 20260905200008 | 60 | 324 | 0.0 | 2.0 | 0.00 | 0.00 | 0.00 | 79 | 1026.2 |
| 20260905195506 | 60 | 324 | 0.0 | 2.0 | 0.00 | 0.00 | 0.00 | 78 | 1026.2 |
| 20260905195004 | 61 | 324 | 0.0 | 2.0 | 0.00 | 0.00 | 0.00 | 77 | 1026.1 |
| 20260905194001 | 61 | 324 | 0.0 | 0.0 | 0.00 | 0.00 | 0.00 | 77 | 1026.1 |
| 20260905193456 | 62 | 324 | 0.0 | 0.0 | 0.00 | 0.00 | 0.00 | 75 | 1026.2 |
| 20260905192959 | 62 | 324 | 0.0 | 0.0 | 0.00 | 0.00 | 0.00 | 74 | 1026.0 |
| 20260905192439 | 62 | 324 | 0.0 | 0.0 | 0.00 | 0.00 | 0.00 | 74 | 1026.1 |
| 20260905191939 | 62 | 324 | 0.0 | 0.0 | 0.00 | 0.00 | 0.00 | 74 | 1026.0 |
| 20260905191439 | 63 | 324 | 0.0 | 0.0 | 0.00 | 0.00 | 0.00 | 74 | 1025.9 |
| 20260905190432 | 63 | 324 | 0.0 | 2.0 | 0.00 | 0.00 | 0.00 | 73 | 1025.8 |
| 20260905185932 | 64 | 324 | 0.0 | 0.0 | 0.00 | 0.00 | 0.00 | 73 | 1025.9 |
| 20260905185436 | 64 | 324 | 0.0 | 0.0 | 0.00 | 0.00 | 0.00 | 73 | 1025.8 |
| 20260905184933 | 64 | 324 | 0.0 | 2.0 | 0.00 | 0.00 | 0.00 | 72 | 1025.8 |
| 20260905184432 | 64 | 324 | 0.0 | 2.0 | 0.00 | 0.00 | 0.00 | 71 | 1025.7 |
| 20260905183931 | 65 | 324 | 0.0 | 2.0 | 0.00 | 0.00 | 0.00 | 71 | 1025.7 |
| 20260905183431 | 65 | 324 | 0.0 | 2.0 | 0.00 | 0.00 | 0.00 | 70 | 1025.8 |
| 20260905182931 | 65 | 324 | 0.0 | 2.0 | 0.00 | 0.00 | 0.00 | 70 | 1025.7 |
| 20260905182432 | 65 | 323 | 0.0 | 2.0 | 0.00 | 0.00 | 0.00 | 69 | 1025.6 |
| 20260905181933 | 66 | 323 | 0.0 | 2.0 | 0.00 | 0.00 | 0.00 | 69 | 1025.6 |
| 20260905181433 | 66 | 323 | 0.0 | 2.0 | 0.00 | 0.00 | 0.00 | 69 | 1025.6 |
| 20260905180929 | 66 | 323 | 0.0 | 2.0 | 0.00 | 0.00 | 0.00 | 68 | 1025.6 |
| 20260905180429 | 67 | 323 | 0.0 | 2.0 | 0.00 | 0.00 | 0.00 | 68 | 1025.5 |
| 20260905175929 | 67 | 322 | 0.0 | 4.0 | 0.00 | 0.00 | 0.00 | 67 | 1025.4 |
| 20260905175408 | 67 | 322 | 0.0 | 4.0 | 0.00 | 0.00 | 0.00 | 67 | 1025.4 |
| 20260905174904 | 67 | 322 | 0.0 | 4.0 | 0.00 | 0.00 | 0.00 | 66 | 1025.4 |
| 20260905174406 | 68 | 322 | 0.0 | 4.0 | 0.00 | 0.00 | 0.00 | 65 | 1025.5 |
| 20260905173905 | 68 | 321 | 0.0 | 4.0 | 0.00 | 0.00 | 0.00 | 65 | 1025.4 |
| 20260905173406 | 69 | 323 | 0.0 | 2.0 | 0.00 | 0.00 | 0.00 | 64 | 1025.3 |
| 20260905172904 | 69 | 322 | 0.0 | 4.0 | 0.00 | 0.00 | 0.00 | 64 | 1025.2 |
| 20260905172407 | 69 | 324 | 2.0 | 4.0 | 0.00 | 0.00 | 0.00 | 63 | 1025.4 |
| 20260905171404 | 71 | 324 | 0.0 | 5.0 | 0.00 | 0.00 | 0.00 | 60 | 1025.2 |
| 20260905170904 | 71 | 324 | 0.0 | 5.0 | 0.00 | 0.00 | 0.00 | 59 | 1025.1 |
| 20260905170406 | 72 | 342 | 0.0 | 4.0 | 0.00 | 0.00 | 0.00 | 59 | 1025.1 |
| 20260905165904 | 72 | 323 | 0.0 | 7.0 | 0.00 | 0.00 | 0.00 | 59 | 1025.1 |
| 20260905165405 | 72 | 320 | 0.0 | 7.0 | 0.00 | 0.00 | 0.00 | 58 | 1025.0 |
| 20260905164904 | 72 | 298 | 0.0 | 4.0 | 0.00 | 0.00 | 0.00 | 59 | 1025.0 |
| 20260905164403 | 72 | 297 | 2.0 | 5.0 | 0.00 | 0.00 | 0.00 | 58 | 1024.9 |
| 20260905163901 | 73 | 291 | 0.0 | 5.0 | 0.00 | 0.00 | 0.00 | 58 | 1024.9 |
| 20260905162856 | 73 | 331 | 2.0 | 5.0 | 0.00 | 0.00 | 0.00 | 58 | 1024.9 |
| 20260905162355 | 73 | 310 | 0.0 | 5.0 | 0.00 | 0.00 | 0.00 | 57 | 1024.7 |
| 20260905161854 | 73 | 64 | 2.0 | 5.0 | 0.00 | 0.00 | 0.00 | 57 | 1024.8 |
| 20260905161351 | 74 | 64 | 2.0 | 5.0 | 0.00 | 0.00 | 0.00 | 57 | 1024.7 |
| 20260905160848 | 74 | 1 | 2.0 | 7.0 | 0.00 | 0.00 | 0.00 | 56 | 1024.7 |
| 20260905155849 | 74 | 261 | 2.0 | 9.0 | 0.00 | 0.00 | 0.00 | 57 | 1024.6 |
| 20260905154845 | 73 | 322 | 5.0 | 22.0 | 0.00 | 0.00 | 0.00 | 58 | 1024.5 |
| 20260905154344 | 73 | 271 | 5.0 | 22.0 | 0.00 | 0.00 | 0.00 | 57 | 1024.6 |
| 20260905153844 | 72 | 259 | 5.0 | 16.0 | 0.00 | 0.00 | 0.00 | 57 | 1024.5 |
| 20260905153344 | 72 | 301 | 4.0 | 12.0 | 0.00 | 0.00 | 0.00 | 58 | 1024.6 |
| 20260905152847 | 71 | 239 | 5.0 | 12.0 | 0.00 | 0.00 | 0.00 | 59 | 1024.6 |
| 20260905151339 | 71 | 245 | 5.0 | 16.0 | 0.00 | 0.00 | 0.00 | 57 | 1024.3 |
| 20260905150840 | 72 | 8 | 7.0 | 22.0 | 0.00 | 0.00 | 0.00 | 57 | 1024.4 |
| 20260905150333 | 72 | 272 | 5.0 | 22.0 | 0.00 | 0.00 | 0.00 | 57 | 1024.2 |
| 20260905145836 | 73 | 293 | 5.0 | 18.0 | 0.00 | 0.00 | 0.00 | 56 | 1024.3 |
| 20260905145332 | 73 | 255 | 5.0 | 18.0 | 0.00 | 0.00 | 0.00 | 57 | 1024.4 |
| 20260905144835 | 72 | 39 | 7.0 | 18.0 | 0.00 | 0.00 | 0.00 | 58 | 1024.2 |
| 20260905143830 | 72 | 283 | 4.0 | 16.0 | 0.00 | 0.00 | 0.00 | 56 | 1024.2 |
| 20260905143330 | 74 | 299 | 4.0 | 12.0 | 0.00 | 0.00 | 0.00 | 57 | 1024.2 |
| 20260905142830 | 74 | 271 | 5.0 | 18.0 | 0.00 | 0.00 | 0.00 | 58 | 1024.2 |
| 20260905141333 | 73 | 272 | 7.0 | 20.0 | 0.00 | 0.09 | 0.00 | 56 | 1024.1 |
| 20260905140832 | 73 | 308 | 7.0 | 18.0 | 0.00 | 0.09 | 0.00 | 57 | 1024.1 |
| 20260905135334 | 73 | 289 | 4.0 | 14.0 | 0.00 | 0.09 | 0.00 | 57 | 1024.0 |
| 20260905134332 | 73 | 265 | 5.0 | 20.0 | 0.00 | 0.09 | 0.00 | 58 | 1024.1 |
| 20260905133332 | 73 | 35 | 5.0 | 25.0 | 0.00 | 0.10 | 0.00 | 56 | 1024.1 |
| 20260905132331 | 73 | 61 | 4.0 | 14.0 | 0.00 | 0.11 | 0.00 | 56 | 1023.9 |
| 20260905131830 | 73 | 292 | 4.0 | 14.0 | 0.00 | 0.11 | 0.00 | 58 | 1023.9 |
| 20260905131331 | 74 | 326 | 2.0 | 12.0 | 0.00 | 0.11 | 0.00 | 58 | 1023.8 |
| 20260905130833 | 74 | 81 | 4.0 | 16.0 | 0.00 | 0.11 | 0.00 | 57 | 1023.8 |
| 20260905125329 | 73 | 311 | 9.0 | 18.0 | 0.00 | 0.11 | 0.00 | 59 | 1023.6 |
| 20260905124329 | 73 | 271 | 5.0 | 16.0 | 0.00 | 0.11 | 0.00 | 60 | 1023.7 |
| 20260905123832 | 72 | 208 | 4.0 | 14.0 | 0.00 | 0.11 | 0.00 | 60 | 1023.7 |
| 20260905123327 | 72 | 99 | 5.0 | 18.0 | 0.00 | 0.11 | 0.00 | 61 | 1023.6 |
| 20260905122827 | 71 | 60 | 7.0 | 18.0 | 0.00 | 0.11 | 0.00 | 61 | 1023.6 |
| 20260905122327 | 73 | 273 | 5.0 | 18.0 | 0.00 | 0.11 | 0.00 | 59 | 1023.7 |
| 20260905121828 | 73 | 288 | 7.0 | 20.0 | 0.00 | 0.11 | 0.00 | 58 | 1023.4 |
| 20260905121328 | 72 | 282 | 7.0 | 22.0 | 0.00 | 0.11 | 0.00 | 58 | 1023.5 |
| 20260905120825 | 72 | 266 | 7.0 | 22.0 | 0.00 | 0.11 | 0.00 | 60 | 1023.5 |
| 20260905120326 | 71 | 262 | 4.0 | 20.0 | 0.00 | 0.11 | 0.00 | 62 | 1023.4 |
| 20260905115820 | 71 | 359 | 4.0 | 16.0 | 0.00 | 0.11 | 0.00 | 62 | 1023.5 |
| 20260905115321 | 71 | 58 | 4.0 | 16.0 | 0.00 | 0.11 | 0.00 | 61 | 1023.6 |
| 20260905113817 | 71 | 334 | 5.0 | 20.0 | 0.00 | 0.11 | 0.00 | 64 | 1023.4 |
| 20260905113317 | 71 | 265 | 7.0 | 18.0 | 0.00 | 0.11 | 0.00 | 63 | 1023.4 |
| 20260905112820 | 71 | 203 | 7.0 | 20.0 | 0.00 | 0.11 | 0.00 | 65 | 1023.3 |
| 20260905112316 | 71 | 288 | 5.0 | 27.0 | 0.00 | 0.11 | 0.00 | 65 | 1023.2 |
| 20260905111315 | 71 | 248 | 4.0 | 14.0 | 0.00 | 0.11 | 0.00 | 66 | 1023.1 |
| 20260905110815 | 70 | 45 | 2.0 | 9.0 | 0.00 | 0.11 | 0.00 | 69 | 1023.3 |
| 20260905105816 | 70 | 258 | 5.0 | 16.0 | 0.00 | 0.11 | 0.00 | 70 | 1023.1 |
| 20260905105311 | 69 | 223 | 7.0 | 23.0 | 0.00 | 0.11 | 0.00 | 69 | 1023.3 |
| 20260905104811 | 69 | 265 | 5.0 | 23.0 | 0.00 | 0.11 | 0.00 | 70 | 1023.2 |
| 20260905104311 | 69 | 285 | 5.0 | 20.0 | 0.00 | 0.11 | 0.00 | 70 | 1023.1 |
| 20260905103814 | 69 | 328 | 7.0 | 20.0 | 0.00 | 0.11 | 0.00 | 69 | 1023.0 |
| 20260905103313 | 69 | 297 | 7.0 | 20.0 | 0.00 | 0.11 | 0.00 | 71 | 1023.0 |
| 20260905102809 | 69 | 297 | 5.0 | 18.0 | 0.00 | 0.11 | 0.00 | 71 | 1023.0 |
| 20260905102310 | 69 | 285 | 5.0 | 14.0 | 0.00 | 0.11 | 0.00 | 70 | 1022.9 |
| 20260905101310 | 67 | 295 | 4.0 | 9.0 | 0.00 | 0.11 | 0.00 | 75 | 1023.0 |
| 20260905100807 | 67 | 312 | 4.0 | 9.0 | 0.00 | 0.11 | 0.00 | 75 | 1023.0 |
| 20260905100305 | 67 | 39 | 7.0 | 18.0 | 0.00 | 0.11 | 0.00 | 75 | 1023.0 |
| 20260905095803 | 67 | 284 | 7.0 | 20.0 | 0.00 | 0.11 | 0.00 | 75 | 1022.9 |
| 20260905094806 | 67 | 270 | 5.0 | 23.0 | 0.00 | 0.11 | 0.00 | 75 | 1022.9 |
| 20260905094306 | 68 | 43 | 7.0 | 23.0 | 0.00 | 0.11 | 0.00 | 75 | 1022.9 |
| 20260905093806 | 68 | 2 | 7.0 | 20.0 | 0.00 | 0.11 | 0.00 | 77 | 1022.8 |
| 20260905091802 | 67 | 281 | 7.0 | 20.0 | 0.00 | 0.11 | 0.00 | 78 | 1022.7 |
| 20260905091306 | 66 | 264 | 7.0 | 20.0 | 0.00 | 0.11 | 0.00 | 79 | 1022.6 |
| 20260905090803 | 66 | 272 | 7.0 | 18.0 | 0.00 | 0.11 | 0.00 | 81 | 1022.6 |
| 20260905090303 | 66 | 247 | 5.0 | 18.0 | 0.00 | 0.11 | 0.00 | 81 | 1022.5 |
| 20260905085804 | 66 | 292 | 5.0 | 22.0 | 0.00 | 0.11 | 0.00 | 81 | 1022.6 |
| 20260905085305 | 65 | 295 | 7.0 | 22.0 | 0.00 | 0.11 | 0.00 | 82 | 1022.5 |
| 20260905084802 | 65 | 319 | 7.0 | 22.0 | 0.00 | 0.11 | 0.00 | 82 | 1022.4 |
| 20260905084304 | 65 | 272 | 7.0 | 22.0 | 0.00 | 0.11 | 0.00 | 82 | 1022.3 |
| 20260905083802 | 65 | 299 | 5.0 | 16.0 | 0.00 | 0.11 | 0.00 | 82 | 1022.3 |